Location: Albuquerque Trailhead
(34.7934°N, 106.3736°W)
Time: 11:18:51
(UTC+00:00)

Exosat Rocket - Pass Details

Date: 01 November 2021
Orbit: 759 x 2516 km, 72.3° (Epoch: 08 December)

Event Time Altitude Azimuth Distance (km) Brightness Sun altitude
Exits shadow 10:07:04 74° 137° (SE) 1,926 5.3 -41.3°
Maximum altitude 10:07:47 76° 104° (ESE) 1,941 5.3 -41.1°
Drops below altitude 10° 10:20:48 10° 22° (NNE) 4,961 7.9 -38.5°
Sets 10:24:48 0° 22° (NNE) 6,097 8.5 -37.7°
